Regional Weather Roundup
Issued by NWS

Home | Current Version | Previous Version | Graphics & Text | Print | Product List | Glossary Off
Versions: 1 2 3 4 5 6 7 8 9 10 11 12 13 14 15 16 17 18 19 20 21 22 23 24 25 26 27 28 29 30 31 32 33 34 35 36 37 38 39 40 41 42 43 44 45 46 47 48 49 50

000
ASUS43 KTOP 192208
RWRKS

WEATHER ROUNDUP FOR KANSAS
NATIONAL WEATHER SERVICE GOODLAND KS
500 PM CDT THU APR 19 2018

NOTE:  "FAIR" INDICATES FEW OR NO CLOUDS BELOW 12,000 FEET WITH NO
SIGNIFICANT WEATHER AND/OR OBSTRUCTIONS TO VISIBILITY.

KSZ001>006-013>018-027>032-041>047-192300-
NORTHWEST KANSAS

CITY           SKY/WX    TMP DP  RH WIND       PRES   REMARKS
GOODLAND       MOSUNNY   63  26  24 SE20G37   30.20F
HAYS           SUNNY     59  25  27 SE7G20    30.31F
HILL CITY        N/A     62  27  26 MISG      30.30F
RUSSELL        SUNNY     60  29  30 E14       30.31F
$$

KSZ061>065-074>080-084>089-192300-
SOUTHWEST KANSAS

CITY           SKY/WX    TMP DP  RH WIND       PRES   REMARKS
DODGE CITY     SUNNY     63  26  24 SE13G23   30.29F
ELKHART        SUNNY     70  30  22 S28G33    30.20F
GARDEN CITY    SUNNY     63  25  23 SE20G32   30.26F
GREAT BEND     SUNNY     59  28  30 E12       30.32F
LIBERAL        CLOUDY    66  26  22 SE15G21   30.25F
PRATT          MOSUNNY   58  23  25 E8        30.32F
$$

KSZ066>073-081>083-090>101-192300-
SOUTHEAST KANSAS

CITY           SKY/WX    TMP DP  RH WIND       PRES   REMARKS
CHANUTE        SUNNY     59  30  33 VRB7      30.36F
COFFEYVILLE    SUNNY     59  30  33 NE9       30.35F
HUTCHINSON     SUNNY     61  28  28 NE9       30.33F
MEDICINE LODGE   N/A     62  27  26 E7        30.32F
NEWTON         CLOUDY    58  27  30 NE9       30.35F
PARSONS        SUNNY     58  29  33 E6        30.36F
WICHITA INTL   MOSUNNY   61  28  28 NE9       30.34F
WICHITA JABRA  CLOUDY    59  27  29 VRB5G18   30.34F
WICHITA MCCONL SUNNY     60  26  27 E9        30.34F
WINFIELD       SUNNY     60  28  29 NE10G16   30.34F
$$

KSZ007>012-019>026-033>040-048>060-102>105-192300-
NORTHEAST KANSAS

CITY           SKY/WX    TMP DP  RH WIND       PRES   REMARKS
CONCORDIA      SUNNY     57  25  29 SE10      30.35F
EMPORIA        SUNNY     58  30  34 E14G20    30.35F
LAWRENCE       SUNNY     61  30  31 E9        30.38F
MANHATTAN      SUNNY     60  28  29 NE10      30.36F
MARYSVILLE     SUNNY     59  28  31 E9        30.36F
OLATHE IND     SUNNY     59  30  33 N12       30.39F
OLATHE EXE     SUNNY     57  31  37 NE12G18   30.38F
SALINA         SUNNY     60  29  30 E14       30.35F
TOPEKA BILLARD SUNNY     60  31  33 NE7       30.37F
TOPEKA FORBES  SUNNY     60  29  30 NE13      30.37F
$$




USA.gov is the U.S. government's official web portal to all federal, state and local government web resources and services.